Regional Weather Roundup
Issued by NWS Wakefield, VA

Home | Current Version | Previous Version | Text Only | Print | Product List | Glossary Off
Versions: 1 2 3 4 5 6 7 8 9 10 11 12 13 14 15 16 17 18 19 20 21 22 23 24 25 26 27

000
ASUS41 KAKQ 221515
RWRAKQ

REGIONAL WEATHER ROUNDUP
NATIONAL WEATHER SERVICE WAKEFIELD VA
1100 AM EDT TUE AUG 22 2017

Note: "fair" indicates few or no clouds below 12,000 feet with no
significant weather and/or obstructions to visibility. * = Denotes
station may not report precipitation (e.g., rain,snow,etc.),
thunder or fog.

VAZ042-051-052>054-056-221600-
NORTHERN VIRGINIA

CITY           SKY/WX    TMP DP  RH WIND       PRES   REMARKS
WASH NATIONAL  MOSUNNY   84  76  76 S12       30.02F
DULLES         MOSUNNY   83  75  77 SW9       30.02S
FORT BELVOIR   SUNNY     83  74  73 S5        30.01F
QUANTICO       MOSUNNY   84  76  76 S8        30.02F
FREDERICKSBRG* SUNNY     85  74  69 SW7       30.02S
STAFFORD*      SUNNY     84  76  78 S6        30.07S
WARRENTON      SUNNY     87  72  59 S7        30.02F
CULPEPER*      SUNNY     87  74  66 SW8       30.03F HX  95
MANASSAS*      SUNNY     85  76  74 S8        30.02F
LEESBURG*      SUNNY     86  75  70 S3        30.02F HX  95
WINCHESTER     SUNNY     82  70  65 S8        30.01F
FRONT ROYAL*   SUNNY     82  72  69 SW8       30.02F
LURAY*         SUNNY     84  70  61 SW10      30.04F
$$

VAZ048-049-060>072-079>083-221600-
CENTRAL AND SOUTH CENTRAL VIRGINIA

CITY           SKY/WX    TMP DP  RH WIND       PRES   REMARKS
RICHMOND       MOSUNNY   85  75  72 S10       30.06F
CHESTERFIELD*  FAIR      86  76  71 VRB7      30.07F HX  96
PETERSBURG*    SUNNY     86  72  64 SW7G16    30.08F
HANOVER        SUNNY     87  72  60 S9        30.06F
TAPPAHANNOCK*  SUNNY     88  71  58 S8        30.05F
QUINTON*       FAIR     N/A N/A N/A S8        30.06F
CHARLOTTSVILLE SUNNY     87  73  62 SW9       30.04F
GORDONSVILLE*  SUNNY     85  74  69 SW13      30.03F
ORANGE*        SUNNY     86  72  62 S8        30.03F
LOUISA*        MOSUNNY   81  72  74 CALM      30.05S
BUMPASS*       FAIR      83  76  78 SW6       30.05S
FARMVILLE*     SUNNY     87  67  51 SW10G16   30.06S
CREWE*         FAIR      85  70  59 SW6       30.07F
FORT PICKETT*  FAIR     N/A N/A N/A SW9       30.08F
CHASE CITY*    FAIR      85  75  73 SW6       30.09S
CLARKSVILLE*   FAIR      84  75  74 SW7       30.09F
SOUTH HILL*    MOSUNNY   85  77  77 SW8       30.15S
LAWRENCEVILLE* FAIR      84  75  72 SW7       30.09S
EMPORIA*       MOSUNNY   84  75  74 S8        30.10F
$$

VAZ088>098-221600-
SOUTHEAST VIRGINIA

CITY           SKY/WX    TMP DP  RH WIND       PRES   REMARKS
NORFOLK        MOSUNNY  N/A N/A N/A SW12      30.08F
VIRGINIA BEACH MOSUNNY   85  73  67 SW9       30.08F
NORFOLK NAVAL  MOSUNNY   86  75  69 SW6       30.09F HX  95
WEST POINT*    SUNNY     86  73  65 S9        30.07F
SALUDA*        FAIR      85  77  76 SW3       30.06S HX  95
NEWPORT NEWS   MOSUNNY   84  75  74 SW10      30.07F
LANGLEY AFB      N/A     84  76  75 SW8       30.07F
FORT EUSTIS    MOSUNNY   87  77  72 S8        30.06F HX  97
WILLIAMSBURG*  SUNNY     88  77  70 CALM      30.08F HX 100
HR EXEC AP*    FAIR      84  75  74 SW7       30.07F
FRANKLIN*      MOSUNNY   82  76  81 S5        30.10F
US460-WAKEFLD  MOSUNNY   84  76  76 SW7       30.08F
$$

VAZ020-022-025-037-045-221600-
WEST CENTRAL AND SOUTHWEST VIRGINIA

CITY           SKY/WX    TMP DP  RH WIND       PRES   REMARKS
STAUNTON*      SUNNY     83  69  62 SW7       30.09F
WAYNESBORO*    SUNNY     84  70  63 SW6G17    30.10S
HOT SPRINGS VA SUNNY     73  61  64 W14       30.24S
LYNCHBURG      SUNNY     83  72  69 S9        30.10S
DANVILLE       SUNNY     85  75  72 VRB7      30.10S
SOUTH BOSTON*  FAIR      86  73  66 SW7       30.09S
MARTINSVILLE   SUNNY     83  72  68 SW5       30.14F
ROANOKE        SUNNY     83  71  67 S7        30.13S
BLACKSBURG     SUNNY     78  71  80 W3        30.20S
DUBLIN*        MOSUNNY   81  70  70 SW6       30.18F
MARION*        MOSUNNY   77  55  45 W10G16    30.23S
HILLSVILLE*    SUNNY     77  64  65 CALM      30.21S
RICHLANDS*     FAIR      77  66  69 W10G20    30.21S
WISE*          MOSUNNY   77  66  69 SW16      30.22S
ABINGDON*      PTSUNNY   81  71  72 W8        30.19S
$$

MDZ021>025-VAZ099-100-221600-
SOUTHERN MARYLAND AND THE DELMARVA PENINSULA

CITY           SKY/WX    TMP DP  RH WIND       PRES   REMARKS
PATUXENT RIVER MOSUNNY   84  75  74 S12       30.03F
BAY BRIDGE APT SUNNY     84  75  74 SW10      30.01F
LEONARDTOWN    SUNNY     82  72  69 S8        30.05S
DOVER          MOSUNNY   86  75  70 S14       29.99F HX  95
GEORGETOWN     SUNNY     87  74  64 SW17      30.04F HX  95
EASTON         SUNNY     86  73  66 SW13      30.05
CAMBRIDGE      SUNNY     84  75  74 SW9       30.03F
SALISBURY      SUNNY     86  76  71 SW15      30.04F HX  96
OCEAN CITY     MOSUNNY   83  78  85 SW10      30.05F
WALLOPS ISLAND PTSUNNY   84  76  76 SW8       30.06F
ACCOMACK*      SUNNY     84  77  78 SW9       30.07S
$$

NCZ012>017-030>032-221600-
NORTH CENTRAL AND EASTERN NORTH CAROLINA

CITY           SKY/WX    TMP DP  RH WIND       PRES   REMARKS
ROANOKE RAPIDS FAIR      82  77  83 SW7       30.10F
RALEIGH        MOSUNNY   87  74  64 VRB5      30.11F HX  95
ELIZABETH CITY MOSUNNY   86  76  71 SW9       30.10F HX  96
AHOSKIE*         N/A     82  76  83 S3        30.11S
EDENTON*       SUNNY     84  77  79 CALM      30.12S
CURRITUCK*     MOSUNNY   85  73  69 S3        30.11F
KILL DEVIL HLS SUNNY     83  73  70 CALM      30.10S
MANTEO         SUNNY     83  74  75 S5        30.11S
CAPE HATTERAS  SUNNY     86  77  74 S6        30.12S HX  97
TARBORO*       NOT AVBL
GOLDSBORO      PTSUNNY   84  80  88 SW6       30.11S HX  98
WASHINGTON     MOSUNNY   85  75  72 W5        30.12S
GREENVILLE     MOSUNNY   82  73  74 W6        30.13S
NEW BERN       PTSUNNY   87  75  67 CALM      30.12F HX  96
WILMINGTON     CLOUDY    85  77  77 S8        30.11S HX  95
$$

VAZ048-221600-
ELSEWHERE

CITY           SKY/WX    TMP DP  RH WIND       PRES   REMARKS
HARRISBURG PA  SUNNY     83  74  74 SE5       29.98F
BALTIMORE      MOSUNNY   85  75  72 VRB6      30.00F
ANNAPOLIS      NOT AVBL
ANDREWS AFB    SUNNY     84  74  71 SW9       30.01F
PHILADELPHIA   MOSUNNY   84  74  71 S9        30.00S
HENDERSON NC   SUNNY     81  71  69 SW8       30.11S
GREENSBORO     MOSUNNY   85  74  69 SW8       30.12S
ROCKY MOUNT    MOSUNNY   83  76  79 SW5       30.11F
$$

VAZ100-221600-
MARINE

STATION/POSITION TIME  TEMP    WIND        PRES    WAVE   SWELL
                       AIR SEA DIR/SP/G            HT/PER HT/PER
                 (UTC) (F)     (DEG/KT/KT) (MB)    (FT/S) (FT/S)
BRANDYWINE LGT   1448   80     220/ 11/ 15 1017.0F
CAPE MAY NJ      1448   81 77  220/  9/ 12 1016.3F
LEWES DE         1448   85 76  230/ 10/ 15 1016.7F
15NM E FENWICK I 1450   79 78  200/ 17/ 21 1017.7F   3/ 4   2/11
OCEAN-CITY-INLET 1448   78 76  200/ 12/ 15 1018.0F
WACHAPREAGUE VA  1448   82 82  200/ 12/ 14 1018.1F
THOMAS POINT MD  1500   81 81  180/ 10/ 11   N/A
GOOSES REEF MD   1500   83 81  220/ 12/ 14 1017.0    1/ 3
COVE POINT MD    1448   84     240/ 12/ 17 1017.3F
SOLOMONS ISLAND  1448   84 82  210/ 12/ 14   N/A
BISHOPS HEAD MD  1448   81 82  200/ 14/ 16 1017.3F
PINEY POINT MD   1448          240/  9/ 12   N/A
POTOMAC MD       1500   83 83  210/ 12/ 16 1016.4    1/ 2
CAMBRIDGE MD     1448   87 83              1017.6F
LEWISETTA VA     1448   84 84  220/ 11/ 14 1017.1F
RAPPAHANNOCK LGT 1448          190/ 13/ 15 1018.7F
STINGRAY PT      1500   84 82  240/ 10/ 12 1018.1    1/ 2
YORK RVR RNG VA  1448   83     230/ 11/ 12 1018.6F
YORKTOWN VA      1448   83 83  230/  9/ 13 1017.9F
JAMESTOWN VA     1500      85  230/  8/ 12   N/A     0
DOMINION TERM VA 1448   81     210/  9/ 10 1018.8F
KIPTOPEKE VA     1448      81  210/  8/ 10   N/A
CHES BAY BRIDGE  1448   82 79  240/  9/ 11 1018.5F
CAPE HENRY VA    1448   83     220/  6/  9   N/A
WILLOUBY STN VA  1448   81     250/  8/  9   N/A
S CRANEY ISL VA  1448   83     190/  6/ 10 1018.6F
CAPE HENRY BUOY  1500      80                N/A     2/10   2/13
1ST LANDING BUOY 1500   82 81              1018.5    1/ 3
64NM E OF VA BCH 1450   79 80  200/  8/  8 1020.0F   2/11   2/11
DUCK PIER NC     1448   82 76  250/  5/  8 1019.2S
44056 DUCK FRF   1430      81                N/A     2/12   2/12
OREGON INLET NC  1436   81 82  190/  4/  5 1019.7S
HATTERAS NC      1448   84 82  190/  4/  7 1020.0S
DIAMOND SHLS NC  1450   82 87  200/  8/ 10 1019.8F   3/ 9   3/ 9
CAPE LOOKOUT NC  1500   83     160/  6/  7 1019.6S
$$




USA.gov is the U.S. government's official web portal to all federal, state and local government web resources and services.